STARLINK-4071 (52671 NORAD) Tracking and Keplerian Element Data

This shows tracking and keplerian element data for the satellite.

Feedback or suggestion? Click here.




ElementValue
Catalog52671
NameSTARLINK-4071
Epoch Orbit2083
Epoch Day269.75721622
Epoch Year2022
RAAN50.1844
Inclination53.2204
Eccentricity0.0001789
Argument of Perigee52.4083
Mean Anonmoly307.7071
Mean Motion15.08829957
Decay Rate-9.47E-06
L11 52671U 22053R 22269.75721622 -.00000947 00000+0 -41432-4 0 9995
L22 52671 53.2204 50.1844 0001789 52.4083 307.7071 15.08829957 20830

Live tracking and technical data element details for STARLINK-4071 (NORAD 52671). STARLINK-4071 can be tracked NOW for your location showing map with azimuth and elevation plus other details from your city location.

Track the satellite on the map from your city or location and see movement details for azimuth, elevation, latitude, longitude, range, height, and movement on the map or in text.







IsCatalogInMostPopularTable: catalog: 52671, numindb: 9
Update: records affected: 1



GetName: 52671 STARLINK-4071

Hit Count: updated at: Thu, 06 Oct 2022 03:30:05 GMT